TimeCDT,TemperatureF,Dew PointF,Humidity,Sea Level PressureIn,VisibilityMPH,Wind Direction,Wind SpeedMPH,Gust SpeedMPH,PrecipitationIn,Events,Conditions,WindDirDegrees,DateUTC
12:54 AM,71.1,69.1,93,29.82,5.0,NNW,3.5,-,N/A,,Clear,340,2013-08-07 05:54:00
1:54 AM,68.0,66.0,93,29.84,4.0,South,5.8,-,N/A,,Clear,190,2013-08-07 06:54:00
2:54 AM,69.1,66.9,93,29.82,4.0,North,6.9,-,N/A,,Clear,350,2013-08-07 07:54:00
3:54 AM,70.0,66.0,87,29.83,8.0,NW,6.9,-,N/A,,Clear,320,2013-08-07 08:54:00
4:54 AM,66.9,64.0,90,29.83,8.0,NNW,5.8,-,N/A,,Clear,330,2013-08-07 09:54:00
5:54 AM,64.9,62.1,90,29.86,8.0,NNW,5.8,-,N/A,,Clear,340,2013-08-07 10:54:00
6:54 AM,64.9,61.0,87,29.88,8.0,NNW,6.9,-,N/A,,Clear,330,2013-08-07 11:54:00
7:54 AM,66.9,62.1,84,29.92,8.0,North,6.9,-,N/A,,Clear,350,2013-08-07 12:54:00
8:54 AM,70.0,62.1,76,29.93,9.0,North,8.1,-,N/A,,Clear,360,2013-08-07 13:54:00
9:54 AM,73.0,63.0,71,29.95,10.0,North,10.4,-,N/A,,Clear,10,2013-08-07 14:54:00
10:54 AM,75.0,63.0,66,29.96,9.0,NNE,8.1,-,N/A,,Clear,20,2013-08-07 15:54:00
11:54 AM,77.0,63.0,62,29.97,10.0,North,10.4,-,N/A,,Clear,10,2013-08-07 16:54:00
12:54 PM,78.1,64.0,62,29.97,10.0,North,10.4,-,N/A,,Clear,10,2013-08-07 17:54:00
1:54 PM,81.0,64.0,56,29.96,10.0,NNE,9.2,-,N/A,,Clear,20,2013-08-07 18:54:00
2:54 PM,82.0,63.0,52,29.96,10.0,NNE,6.9,-,N/A,,Clear,30,2013-08-07 19:54:00
3:54 PM,82.9,63.0,51,29.95,10.0,NNW,4.6,-,N/A,,Clear,340,2013-08-07 20:54:00
4:54 PM,82.9,62.1,49,29.94,10.0,NNE,8.1,-,N/A,,Clear,30,2013-08-07 21:54:00
5:54 PM,82.0,60.1,47,29.95,10.0,NNE,5.8,-,N/A,,Clear,30,2013-08-07 22:54:00
6:54 PM,78.1,63.0,60,29.94,10.0,NNE,5.8,-,N/A,,Clear,20,2013-08-07 23:54:00
7:54 PM,75.9,64.0,67,29.95,9.0,North,4.6,-,N/A,,Clear,10,2013-08-08 00:54:00
8:54 PM,71.1,66.0,84,29.96,8.0,Calm,Calm,-,N/A,,Clear,0,2013-08-08 01:54:00
9:54 PM,70.0,66.0,87,29.98,10.0,NNE,3.5,-,N/A,,Clear,30,2013-08-08 02:54:00
10:54 PM,69.1,64.9,87,29.98,8.0,NE,3.5,-,N/A,,Clear,50,2013-08-08 03:54:00
11:54 PM,66.9,64.0,90,29.98,9.0,Calm,Calm,-,N/A,,Partly Cloudy,0,2013-08-08 04:54:00